Regional Weather Roundup
Issued by NWS

Home | Current Version | Previous Version | Graphics & Text | Print | Product List | Glossary On
Versions: 1 2 3 4 5 6 7 8 9 10 11 12 13 14 15 16 17 18 19 20 21 22 23 24 25 26 27
000
ASUS45 KCYS 242210
RWRWY

WYOMING REGIONAL WEATHER ROUNDUP
NATIONAL WEATHER SERVICE CHEYENNE WY
400 PM MDT WED AUG 24 2016

NOTE:  "FAIR" INDICATES FEW OR NO CLOUDS BELOW 12,000 FEET
WITH NO SIGNIFICANT WEATHER AND/OR OBSTRUCTIONS TO VISIBILITY.

WYZ001-242300-
YELLOWSTONE NATIONAL PARK

CITY           SKY/WX    TMP DP  RH WIND       PRES   REMARKS
LK YELLOWSTONE   N/A     40  40 100 NW3       30.35R
W YELLOWSTONE  NOT AVBL

$$
WYZ002>013-054>058-071-098>099-242300-
NORTHERN WYOMING

CITY           SKY/WX    TMP DP  RH WIND       PRES   REMARKS
JACKSON        SUNNY     70  19  14 W7        30.17F
CODY           CLOUDY    59  43  55 N18G24    30.26S
GREYBULL       FAIR      74  37  26 NW18G29   30.15F
WORLAND        FAIR      74  37  26 NE7       30.16F
SHERIDAN       CLOUDY    64  43  46 NW12      30.24S
BUFFALO        CLOUDY    63  42  46 NW17G29   30.27S
GILLETTE       CLOUDY    67  42  40 NW15      30.20F
HULETT         MOCLDY    70  41  35 N5G20     30.21S
NEWCASTLE      FAIR      72  34  25 NW8G17    30.18S

$$
WYZ014>020-022>026-101>103-242300-
CENTRAL WYOMING

CITY           SKY/WX    TMP DP  RH WIND       PRES   REMARKS
BIG PINEY      FAIR      70  13  11 VRB5      30.19F
PINEDALE       FAIR      68  14  12 SE6       30.21F
DUBOIS         FAIR      61  28  29 SE17G25   30.24S
LANDER         FAIR      68  36  30 N6        30.18F
RIVERTON       FAIR      71  34  25 NE13      30.19F
CASPER         FAIR      73  35  25 NE16      30.17F
DOUGLAS        FAIR      74  33  22 SE6       30.16F

$$
WYZ021-027>030-104>119-242300-
SOUTHERN WYOMING

CITY           SKY/WX    TMP DP  RH WIND       PRES   REMARKS
EVANSTON       FAIR      72   1   6 SW17G30   30.24F
FORT BRIDGER   FAIR      76   5   6 W21G31    30.25S
ROCK SPRINGS   NOT AVBL
DIXON          FAIR      74  31  20 S7        30.19F
RAWLINS        FAIR      72  32  23 MISG      30.19F
SARATOGA       MOCLDY    57  45  62 E14       30.26R
LARAMIE        CLOUDY    56  48  74 SE14      30.27R
CHEYENNE       FAIR      68  43  40 S23G30    30.21F
TORRINGTON     FAIR      76  46  34 SE12G23   30.11F
PINE BLUFFS    FAIR      70  41  35 S13G25    30.19F

$$




USA.gov is the U.S. government's official web portal to all federal, state and local government web resources and services.